Location: Spruce Knob
(38.6995°N, 79.5330°W)
Time: 10:26:17
(UTC-05:00)

ISS - Visible Passes

Search period start: 03 December 2021 00:00
Search period end: 13 December 2021 00:00
Orbit: 417 x 423 km, 51.6° (Epoch: 03 December)

Date Brightness Start Highest point End Pass type
(mag) Time Alt. Az. Time Alt. Az. Time Alt. Az.
03 Dec -1.5 17:25:27 10° N 17:26:51 12° NNE 17:28:15 10° NE visible
03 Dec -1.3 19:01:11 10° NW 19:02:08 17° NNW 19:02:08 17° NNW visible
04 Dec -2.6 18:14:07 10° NNW 18:17:03 26° NNE 18:17:11 26° NNE visible
05 Dec -2.1 17:27:06 10° NNW 17:29:39 19° NNE 17:32:11 10° ENE visible
05 Dec -2.2 19:03:23 10° NW 19:05:26 33° WNW 19:05:26 33° WNW visible
06 Dec -3.8 18:16:09 10° NW 18:19:31 69° NE 18:20:57 31° ESE visible
07 Dec -3.3 17:29:00 10° NW 17:32:14 41° NNE 17:35:27 10° ESE visible
07 Dec -1.3 19:06:17 10° W 19:08:51 20° SW 19:09:56 18° SSW visible
08 Dec -2.1 18:18:37 10° WNW 18:21:45 35° SW 18:24:51 10° SSE visible
09 Dec -3.3 17:31:13 10° WNW 17:34:34 65° SW 17:37:55 10° SE visible
10 Dec -0.3 18:22:35 10° WSW 18:23:43 11° SW 18:24:52 10° SSW visible
11 Dec -0.6 17:34:08 10° W 17:36:40 20° SW 17:39:12 10° S visible
